Starlink 4089

operational
NORAD ID: 52831 Int'l Des: 2022-062 Owner: SPXS Country: US Constellation: starlink
LEOCIRCULAR

Starlink 4089について

説明を読み込み中...

リアルタイム位置

3D地球を読み込み中...

次回通過

高度履歴

Altitude vs Time

uPlot chart will show altitude changes over time

軌道要素

1 52831U 22062B 25257.97472060 .00000942 00000-0 77285-4 0 9995
2 52831 53.2166 102.9357 0001118 77.9999 282.1118 15.08837133179258
Epoch: Sep 14, 2025 • Age: 24 hours

現在のステータス

高度 539.6 km
速度 7.60 km/s
衛星直下点 15.99°N, 125.67°E
打ち上げ日 Jun 17, 2022
運用期間 3.2 years
タイプ internet

技術仕様

分類 Payload
質量 297.00 kg
乾燥質量 275.00 kg
総質量 297.00 kg
長さ 0.20 m
直径 2.80 m
スパン 9.00 m
形状 Box + pan
製造者 SPXS
バスタイプ Starlink
フェーズステータス In Orbit
所有者/国 SPXS/US

大規模コンステレーション

Loading constellations...